Back to catalog

SHIJIAN 6 04B

SJ-6 04B

AliveScienceSSO
NORAD 37180·PAYLOAD·🇨🇳 China

Launched Oct 6, 2010 from Taiyuan Satellite Launch Center

Loading…

Next Passes (next 24 hours)

TLE

FreshSource: Space-Track

Epoch: Sep 14, 2026, 13:57 UTC

1 37180U 10051B   26257.58135706  .00001048  00000-0  90377-4 0  9996
2 37180  97.8766 263.9506 0012856  27.1390 333.0502 14.99474953869070

Track SHIJIAN 6 04B in real time with AllMySat

Download on the App Store